Stations météo

réclame
Mon MeteoGroup
Avignon, France (7563): Température de l'air & dewpoint: 18.08.2019 07:00:00 - 24.08.2019 07:00:00 (CEST)Avignon, France (7563): Température de l'air 5cm: 18.08.2019 07:00:00 - 24.08.2019 07:00:00 (CEST)Avignon, France (7563): Vitesse du vent & gusts: 18.08.2019 07:00:00 - 24.08.2019 07:00:00 (CEST)Avignon, France (7563): Direction du vent: 18.08.2019 07:00:00 - 24.08.2019 07:00:00 (CEST)Avignon, France (7563): reduced air pressure: 18.08.2019 07:00:00 - 24.08.2019 07:00:00 (CEST)Avignon, France (7563): visibility: 18.08.2019 07:00:00 - 24.08.2019 07:00:00 (CEST)Avignon, France (7563): Quantités de précipitations: 18.08.2019 07:00:00 - 24.08.2019 07:00:00 (CEST)
Date & Time tt [°C] td [°C] tt 5cm [°C] ff [km/h] ff [knt] fx [km/h] fx [knt] dd ppp [hPa] vv [km] rr [mm]
24.08.2019 07:00:00 - - - - - - - - - - -
24.08.2019 06:00:00 15,8 13,6 13,6 2 1 6 4 N 1019,9 16 0,0
24.08.2019 05:00:00 16,6 14,2 13,6 2 1 5 3 NNE 1020,0 15 0,0
24.08.2019 04:00:00 17,1 14,6 14,4 2 1 5 3 SSE 1020,0 20 0,0
24.08.2019 03:00:00 17,3 14,0 15,0 3 1 7 4 E 1020,2 20 0,0
24.08.2019 02:00:00 18,4 15,1 15,0 2 1 7 4 E 1020,1 27 0,0
24.08.2019 01:00:00 19,5 15,2 16,3 6 3 8 4 E 1020,2 30 0,0
24.08.2019 00:00:00 19,9 14,9 16,7 3 1 7 4 ENE 1019,9 31 0,0
23.08.2019 23:00:00 21,4 14,8 17,8 6 3 8 5 SE 1019,8 35 0,0
23.08.2019 22:00:00 23,2 15,0 19,7 4 2 12 6 SE 1019,6 42 0,0
23.08.2019 21:00:00 24,5 14,6 22,7 9 5 31 17 SSE 1018,7 45 0,0
23.08.2019 20:00:00 27,2 14,9 27,3 20 11 33 18 S 1018,3 43 0,0
23.08.2019 19:00:00 30,1 14,2 31,7 21 12 31 17 S 1018,0 59 0,0
23.08.2019 18:00:00 31,7 13,5 35,0 18 10 35 19 SSW 1017,7 55 0,0
23.08.2019 17:00:00 32,6 13,8 36,2 22 12 37 20 S 1017,7 57 0,0
23.08.2019 16:00:00 33,8 12,7 38,9 20 11 34 18 S 1017,7 60 0,0
23.08.2019 15:00:00 33,6 13,1 38,9 14 8 31 17 S 1018,3 60 0,0
23.08.2019 14:00:00 31,8 13,5 37,7 9 5 26 14 SW 1018,6 48 0,0
23.08.2019 13:00:00 30,3 14,4 35,2 8 5 19 11 NW 1019,3 19 0,0
23.08.2019 12:00:00 28,5 15,1 31,5 8 5 22 12 NNW 1019,7 56 0,0
23.08.2019 11:00:00 26,8 15,8 27,0 9 5 19 10 NNE 1019,6 53 0,0
23.08.2019 10:00:00 24,2 15,7 22,7 12 6 22 12 N 1020,0 46 0,0
23.08.2019 09:00:00 21,3 14,9 19,7 11 6 18 10 N 1020,2 41 0,0
23.08.2019 08:00:00 19,5 14,9 16,3 9 5 15 8 N 1020,0 42 0,0
23.08.2019 07:00:00 18,0 14,5 13,3 8 5 13 7 N 1019,9 48 0,0
23.08.2019 06:00:00 16,3 13,4 13,7 5 3 9 5 ENE 1019,8 43 0,0
23.08.2019 05:00:00 19,1 14,6 15,6 5 3 16 9 N 1019,8 56 0,0
23.08.2019 04:00:00 18,6 14,9 14,5 7 4 14 7 N 1020,0 53 0,0
23.08.2019 03:00:00 18,1 13,8 15,7 5 3 17 9 SSE 1020,1 46 0,0
23.08.2019 02:00:00 21,3 14,0 19,1 11 6 32 17 N 1020,0 60 0,0
23.08.2019 01:00:00 20,8 14,4 16,4 8 4 14 8 NNW 1020,2 60 0,0
23.08.2019 00:00:00 21,0 13,9 18,0 8 5 13 7 NNE 1020,4 60 0,0
22.08.2019 23:00:00 20,7 13,9 17,8 6 3 11 6 SSE 1020,4 56 0,0
22.08.2019 22:00:00 22,1 14,5 19,3 3 2 10 5 ENE 1020,6 57 0,0
22.08.2019 21:00:00 24,1 14,2 22,9 5 3 18 10 E 1020,5 60 0,0
22.08.2019 20:00:00 26,7 12,7 27,4 8 4 36 20 E 1020,1 60 0,0
22.08.2019 19:00:00 30,7 13,9 32,9 14 8 35 19 NE 1019,6 47 0,0
22.08.2019 18:00:00 30,8 14,4 33,6 23 12 35 19 N 1018,4 60 0,0
22.08.2019 17:00:00 31,9 14,5 35,5 20 11 35 19 N 1018,5 60 0,0
22.08.2019 16:00:00 31,6 14,3 32,7 21 12 35 19 NNW 1018,6 60 0,0
22.08.2019 15:00:00 29,8 14,0 32,8 19 11 33 18 NNW 1019,1 47 0,0
22.08.2019 14:00:00 28,7 14,1 29,5 19 10 32 18 N 1019,5 54 0,0
22.08.2019 13:00:00 27,5 13,8 30,8 20 11 35 19 NNW 1019,9 20 0,0
22.08.2019 12:00:00 26,7 13,8 27,5 20 11 33 18 NNW 1020,1 60 0,0
22.08.2019 11:00:00 24,7 13,6 24,3 20 11 31 17 N 1020,2 52 0,0
22.08.2019 10:00:00 22,8 13,0 23,4 20 11 37 20 N 1020,0 53 0,0
22.08.2019 09:00:00 22,2 13,3 20,6 18 10 31 17 N 1019,6 44 0,0
22.08.2019 08:00:00 20,1 12,8 19,0 19 10 31 17 N 1019,5 58 0,0
22.08.2019 07:00:00 19,5 12,5 18,7 14 8 29 15 N 1019,3 60 0,0
22.08.2019 06:00:00 19,6 12,8 19,0 14 8 26 14 N 1018,9 60 0,0
22.08.2019 05:00:00 20,0 13,0 19,5 15 8 26 14 N 1018,6 60 0,0
22.08.2019 04:00:00 20,5 13,0 20,1 18 10 34 18 N 1018,5 60 0,0
22.08.2019 03:00:00 20,9 12,8 20,5 17 9 37 20 N 1018,9 60 0,0
22.08.2019 02:00:00 21,4 12,5 20,9 22 12 40 22 N 1018,9 60 0,0
22.08.2019 01:00:00 21,6 12,7 20,9 19 11 38 20 N 1019,0 60 0,0
22.08.2019 00:00:00 21,7 12,5 21,2 24 13 41 22 NNW 1019,2 60 0,0
21.08.2019 23:00:00 21,7 12,8 21,1 26 14 42 23 N 1018,9 60 0,0
21.08.2019 22:00:00 22,0 12,8 21,4 27 14 43 23 NNW 1018,9 60 0,0
21.08.2019 21:00:00 22,6 12,5 22,0 30 16 53 29 NNW 1018,4 60 0,0
21.08.2019 20:00:00 23,9 12,5 23,7 29 16 47 25 NNW 1017,9 49 0,0
21.08.2019 19:00:00 26,1 12,5 26,5 26 14 42 23 NNW 1017,4 60 0,0
21.08.2019 18:00:00 27,3 12,1 30,1 30 16 49 26 NNW 1017,7 17 0,0
21.08.2019 17:00:00 28,3 12,6 30,3 28 15 48 26 N 1017,7 17 0,0
21.08.2019 16:00:00 28,0 12,4 31,4 27 14 46 25 N 1017,9 19 0,0
21.08.2019 15:00:00 27,9 12,3 31,4 29 16 45 24 N 1018,2 20 0,0
21.08.2019 14:00:00 26,8 12,1 29,2 29 15 42 23 NNW 1018,7 22 0,0
21.08.2019 13:00:00 26,1 11,8 28,6 28 15 45 24 NNW 1018,9 23 0,0
21.08.2019 12:00:00 24,1 11,1 25,6 29 16 48 26 N 1019,2 23 0,0
21.08.2019 11:00:00 22,2 11,0 22,8 32 17 52 28 N 1019,7 25 0,0
21.08.2019 10:00:00 20,9 11,0 20,2 31 17 56 31 N 1019,7 27 0,0
21.08.2019 09:00:00 18,9 11,0 17,4 31 17 50 27 N 1019,8 33 0,0
21.08.2019 08:00:00 17,2 11,0 16,1 33 18 53 29 N 1019,4 38 0,0
21.08.2019 07:00:00 16,5 11,0 15,9 29 16 50 27 N 1019,3 59 0,0
21.08.2019 06:00:00 16,8 11,1 16,0 28 15 51 27 N 1019,1 60 0,0
21.08.2019 05:00:00 16,9 11,4 16,4 29 16 56 31 N 1019,0 60 0,0
21.08.2019 04:00:00 17,2 11,7 16,6 31 17 61 33 N 1019,1 60 0,0
21.08.2019 03:00:00 17,4 11,7 17,0 34 19 59 32 N 1019,1 60 0,0
21.08.2019 02:00:00 17,6 11,8 17,1 35 19 56 30 N 1019,2 60 0,0
21.08.2019 01:00:00 17,9 11,7 17,3 34 18 54 29 N 1019,6 60 0,0
21.08.2019 00:00:00 18,0 12,0 17,4 31 17 61 33 N 1019,7 60 0,0
20.08.2019 23:00:00 18,4 12,2 17,9 39 21 63 34 N 1020,0 60 0,0
20.08.2019 22:00:00 18,4 12,4 18,0 42 23 63 34 NNW 1020,0 60 0,0
20.08.2019 21:00:00 18,9 12,6 18,5 33 18 58 32 NNW 1019,9 60 0,0
20.08.2019 20:00:00 20,1 12,6 20,6 31 17 61 33 NNW 1019,2 50 0,0
20.08.2019 19:00:00 20,5 12,5 20,0 34 18 68 37 N 1019,8 57 0,0
20.08.2019 18:00:00 19,7 13,2 19,9 36 20 61 33 NNW 1020,4 28 0,0
20.08.2019 17:00:00 20,5 13,5 21,0 29 15 58 31 N 1019,7 39 0,0
20.08.2019 16:00:00 20,5 13,7 21,7 37 20 54 29 NNW 1020,4 54 0,0
20.08.2019 15:00:00 21,1 13,5 21,9 29 16 48 26 NNW 1020,6 31 0,0
20.08.2019 14:00:00 21,4 13,1 22,9 27 14 47 25 NNW 1020,1 60 0,0
20.08.2019 13:00:00 22,3 13,4 24,3 29 16 48 26 N 1019,7 49 0,0
20.08.2019 12:00:00 22,6 13,6 24,4 26 14 43 23 NNW 1019,7 49 0,0
20.08.2019 11:00:00 22,3 13,4 22,5 20 11 36 20 NNW 1019,3 56 0,0
20.08.2019 10:00:00 21,1 13,3 20,6 20 11 37 20 NNW 1018,8 51 0,0
20.08.2019 09:00:00 19,8 13,3 20,0 21 12 43 23 N 1018,4 48 0,0
20.08.2019 08:00:00 19,8 13,0 19,3 22 12 42 23 NNW 1018,0 57 0,0
20.08.2019 07:00:00 19,7 13,2 19,5 23 12 41 22 NNW 1017,3 60 0,0
20.08.2019 06:00:00 20,2 13,2 20,0 21 11 39 21 N 1017,2 60 0,0
20.08.2019 05:00:00 20,8 12,7 20,6 19 10 33 18 NNW 1017,4 60 0,0
20.08.2019 04:00:00 21,1 13,0 20,4 21 11 34 19 NNW 1017,7 60 0,0
20.08.2019 03:00:00 20,8 13,7 20,5 13 7 25 13 NNW 1017,9 60 0,0
20.08.2019 02:00:00 21,3 13,7 20,7 16 9 27 14 N 1017,8 60 0,0
20.08.2019 01:00:00 21,4 14,1 20,6 7 4 23 12 NW 1018,4 60 0,0
20.08.2019 00:00:00 21,2 14,4 21,1 16 9 31 17 NNW 1018,8 60 0,0
19.08.2019 23:00:00 22,0 15,1 21,4 15 8 23 12 NW 1018,3 60 0,0
19.08.2019 22:00:00 22,7 15,5 21,2 12 7 37 20 N 1017,6 46 0,0
19.08.2019 21:00:00 24,7 15,9 24,5 18 10 26 14 NNW 1017,2 60 0,0
19.08.2019 20:00:00 27,0 19,9 27,0 10 5 21 11 SW 1016,4 34 0,0
19.08.2019 19:00:00 28,3 19,8 29,2 13 7 23 13 SSW 1016,3 20 0,0
19.08.2019 18:00:00 29,8 19,2 31,9 9 5 21 11 W 1016,0 33 0,0
19.08.2019 17:00:00 29,7 16,5 31,1 5 3 16 9 NE 1016,2 40 0,0
19.08.2019 16:00:00 29,3 16,1 31,1 11 6 21 11 NNW 1016,3 42 0,0
19.08.2019 15:00:00 29,8 16,9 33,5 6 4 21 11 W 1016,2 20 0,0
19.08.2019 14:00:00 28,7 16,6 32,4 7 4 22 12 N 1016,3 43 0,0
19.08.2019 13:00:00 28,7 16,9 32,0 10 6 19 10 NNE 1016,4 20 0,0
19.08.2019 12:00:00 27,1 16,4 30,0 8 4 18 10 NNW 1016,8 40 0,0
19.08.2019 11:00:00 27,1 17,8 28,5 5 3 18 10 ENE 1016,6 20 0,0
19.08.2019 10:00:00 24,8 17,5 24,5 6 3 13 7 N 1016,7 35 0,0
19.08.2019 09:00:00 23,2 17,4 21,2 4 2 10 5 SSW 1016,8 20 0,0
19.08.2019 08:00:00 20,0 17,0 16,8 2 1 5 3 ENE 1016,3 29 0,0
19.08.2019 07:00:00 18,0 15,6 16,7 3 2 9 5 ESE 1016,1 23 0,0
19.08.2019 06:00:00 18,5 15,7 17,3 5 3 13 7 S 1015,9 24 0,0
19.08.2019 05:00:00 18,7 16,8 16,6 8 4 12 6 ENE 1015,9 20 0,0
19.08.2019 04:00:00 19,7 17,8 16,5 5 3 8 4 NW 1016,5 19 0,0
19.08.2019 03:00:00 19,5 17,3 17,2 5 3 9 5 ESE 1016,0 18 0,0
19.08.2019 02:00:00 20,5 17,9 19,0 5 3 12 7 ESE 1016,1 19 0,0
19.08.2019 01:00:00 20,8 18,4 17,6 8 4 12 7 E 1016,4 29 0,0
19.08.2019 00:00:00 21,3 18,7 17,5 0 0 11 6 N 1016,3 28 0,0
18.08.2019 23:00:00 22,5 18,9 21,5 8 4 16 9 W 1016,0 32 0,0
18.08.2019 22:00:00 23,5 18,6 22,5 8 4 18 10 WNW 1015,5 44 0,0
18.08.2019 21:00:00 24,8 16,2 23,9 11 6 27 14 SW 1014,1 59 0,0
18.08.2019 20:00:00 26,4 15,4 26,0 16 9 33 18 SW 1013,8 51 0,0
18.08.2019 19:00:00 28,7 14,9 30,6 22 12 40 22 SW 1013,7 30 0,0
18.08.2019 18:00:00 30,0 13,7 32,7 27 15 45 24 SW 1013,7 29 0,0
18.08.2019 17:00:00 31,4 16,2 35,8 22 12 36 19 SW 1013,2 32 0,0
18.08.2019 16:00:00 32,6 12,3 37,8 20 11 33 18 S 1013,8 33 0,0
18.08.2019 15:00:00 32,2 13,4 36,5 21 11 37 20 SSW 1014,0 32 0,0
18.08.2019 14:00:00 31,2 15,2 35,9 22 12 34 19 SSW 1014,2 36 0,0
18.08.2019 13:00:00 30,4 16,4 32,4 16 8 31 17 S 1014,6 39 0,0
18.08.2019 12:00:00 29,4 18,2 31,9 16 8 29 15 SSW 1015,0 40 0,0
18.08.2019 11:00:00 27,3 17,5 28,6 17 9 32 17 S 1015,2 35 0,0
18.08.2019 10:00:00 25,8 16,9 25,1 16 9 26 14 S 1015,1 30 0,0
18.08.2019 09:00:00 23,1 17,6 21,5 9 5 15 8 SSE 1015,1 20 0,0
18.08.2019 08:00:00 20,7 17,5 18,0 5 3 13 7 S 1014,8 20 0,0
18.08.2019 07:00:00 19,1 15,0 18,2 11 6 21 11 SSE 1014,3 30 0,0

tt = Température de l'air
td = dewpoint
tt 5cm = Température de l'air 5cm
ff = Vitesse du vent
fx = gusts
dd = Direction du vent
ppp = reduced air pressure
vv = visibility
rr = Quantités de précipitations

stations d'obs. à proximité